Location: Plainartige
(45.6866°N, 1.7993°E)
Time: 00:23:28
(UTC+00:00)

Oscar 19 - Visible Passes

Search period start: 30 June 2022 00:00
Search period end: 10 July 2022 00:00
Orbit: 772 x 790 km, 98.8° (Epoch: 29 June)

Date Brightness Start Highest point End Pass type
(mag) Time Alt. Az. Time Alt. Az. Time Alt. Az.
30 Jun 12.3 02:39:26 10° NE 02:43:52 29° E 02:48:15 10° SSE visible
01 Jul 13.1 02:08:36 10° NE 02:11:30 15° E 02:14:22 10° SE visible
02 Jul 11.2 03:14:14 10° NNE 03:19:18 58° ESE 03:24:20 10° S visible
03 Jul 12.3 02:42:36 10° NE 02:47:06 30° E 02:51:35 10° SSE visible
04 Jul 13.1 02:11:39 10° NE 02:14:45 16° E 02:17:50 10° SE visible
05 Jul 11.1 03:17:26 10° NNE 03:22:32 62° ESE 03:27:35 10° S visible
06 Jul 12.2 02:45:46 10° NNE 02:50:21 32° E 02:54:54 10° SSE visible
07 Jul 13.0 02:14:43 10° NE 02:18:01 17° E 02:21:17 10° SE visible
08 Jul 11.0 03:20:38 10° NNE 03:25:45 66° ESE 03:30:50 10° S visible
09 Jul 12.1 02:48:56 10° NNE 02:53:35 34° E 02:58:12 10° SSE visible
